Flag for Saint Lucia Weather past 2 weeks in Vieux Fort, Saint Lucia

Now
84 °F

Broken clouds.


Feels Like: 92 °F
Forecast: 81 / 86 °F
Wind: 18 mph from East

Location: Hewanorra International Airport

Current Time: Jul 7, 2015 at 12:19:55 PM

Latest Report: Jul 7, 2015 at 12:00 PM


Visibility: N/A

Pressure: 30.01 "Hg

Humidity: 74%

Dew point: 75 °F

Location of Vieux FortLocation

Historic Weather in Vieux Fort — Graph

°F

Vieux Fort temperature yesterday

Maximum temperature yesterday: 86 °F (at 11:00 AM)
Minimum temperature yesterday: 79 °F (at 1:00 AM)
Average temperature yesterday: 83 °F

Past Weeks' High & Low Weather Summary

 TemperatureHumidityPressure
High88 °F (Jun 25, 12:00 PM)94% (Jun 22, 6:00 PM)30.12 "Hg (Jun 22, 6:00 PM)
Low79 °F (Jun 22, 6:00 PM)59% (Jun 25, 1:00 PM)29.95 "Hg (Jul 2, 4:00 PM)
Average83 °F75%30.03 "Hg
* Reported Jun 22 11:00 AM — Jul 7 11:00 AM, Vieux Fort, Weather by CustomWeather, © 2015

Note: Actual official high and low records may vary slightly from our data, if they occured in-between our weather recording intervals... More about our weather records

Advertising

Vieux Fort weather history for previous 24 hours

 ConditionsComfort  
Time TempWeatherWind HumidityBarometerVisibility
11:00 AM
Tue, Jul 7
84 °FBroken clouds.22 mph70%30.01 "HgN/A
10:00 AM86 °FBroken clouds.21 mph66%30.01 "HgN/A
9:00 AM82 °FBroken clouds.18 mph79%30.01 "HgN/A
8:00 AM82 °FPartly sunny.23 mph79%30.01 "HgN/A
7:00 AM81 °FPartly sunny.20 mph84%30.01 "HgN/A
6:00 AM81 °FBroken clouds.21 mph84%29.98 "HgN/A
5:00 AM81 °FRain showers. Passing clouds.17 mph84%29.98 "HgN/A
4:00 AM81 °FPassing clouds.20 mph79%29.95 "HgN/A
3:00 AM81 °FPassing clouds.17 mph84%29.95 "HgN/A
2:00 AM81 °FPartly cloudy.18 mph84%29.95 "HgN/A
1:00 AM81 °FPassing clouds.18 mph84%29.98 "HgN/A
12:00 AM81 °FPartly cloudy.21 mph79%29.98 "HgN/A
11:00 PM
Mon, Jul 6
81 °FPassing clouds.17 mph84%30.01 "HgN/A
10:00 PM81 °FPassing clouds.22 mph79%30.01 "HgN/A
9:00 PM81 °FPartly cloudy.20 mph79%30.01 "HgN/A
8:00 PM81 °FPartly cloudy.18 mph79%30.01 "HgN/A
7:00 PM82 °FPassing clouds.20 mph74%29.98 "HgN/A
6:00 PM84 °FPartly sunny.20 mph70%29.98 "HgN/A
5:00 PM84 °FPartly sunny.24 mph70%29.98 "HgN/A
4:00 PM86 °FBroken clouds.20 mph70%29.98 "HgN/A
3:00 PM86 °FBroken clouds.21 mph66%29.98 "HgN/A
2:00 PM86 °FBroken clouds.21 mph62%29.98 "HgN/A
1:00 PM84 °FBroken clouds.23 mph66%30.01 "HgN/A
12:00 PM86 °FBroken clouds.25 mph62%30.04 "HgN/A
Weather by CustomWeather, © 2015

See weather overviewHow to use our weather pages